This is the latest recevied weather packets stored in our database for station/object K0CPM-2. If no packets are shown the sender has not sent any weather packets the latest 10 day(s).
| Time | Temp. | Humidity | Pressure | Rain* | Wind** | Luminosity | Snow |
|---|---|---|---|---|---|---|---|
| 1777974348 | 17.22° C | 88% | 1009.9 hPa | 0 mm | - | - | - |
| 1777973449 | 17.78° C | 88% | 1009.9 hPa | 0 mm | - | - | - |
| 1777972568 | 17.78° C | 86% | 1009.7 hPa | 0 mm | - | - | - |
| 1777971657 | 17.78° C | 86% | 1009.9 hPa | 0 mm | - | - | - |
| 1777970746 | 17.78° C | 85% | 1009.7 hPa | 0 mm | - | - | - |
| 1777969850 | 18.33° C | 84% | 1009.8 hPa | 0 mm | - | - | - |
| 1777968946 | 17.78° C | 84% | 1009.9 hPa | 0 mm | - | - | - |
| 1777968049 | 17.78° C | 85% | 1009.8 hPa | 0 mm | - | - | - |
| 1777967143 | 17.22° C | 84% | 1010 hPa | 0 mm | - | - | - |
| 1777966253 | 17.78° C | 84% | 1010.1 hPa | 0 mm | - | - | - |
| 1777965343 | 17.78° C | 83% | 1010.2 hPa | 0 mm | - | - | - |
| 1777964437 | 17.78° C | 84% | 1010.4 hPa | 0 mm | - | - | - |
| 1777963534 | 17.78° C | 86% | 1010.7 hPa | 0 mm | - | - | - |
| 1777962644 | 16.67° C | 85% | 1010.9 hPa | 0 mm | - | - | - |
| 1777961735 | 16.67° C | 83% | 1010.9 hPa | 0 mm | - | - | - |
| 1777960829 | 17.22° C | 81% | 1010.9 hPa | 0 mm | - | - | - |
| 1777959934 | 17.78° C | 79% | 1011 hPa | 0 mm | - | - | - |
| 1777959021 | 18.33° C | 77% | 1011 hPa | 0 mm | - | - | - |
| 1777958133 | 18.33° C | 76% | 1010.7 hPa | 0 mm | - | - | - |
| 1777957216 | 18.33° C | 77% | 1010.9 hPa | 0 mm | - | - | - |
| 1777956314 | 18.33° C | 75% | 1011.1 hPa | 0 mm | - | - | - |
| 1777955418 | 18.89° C | 74% | 1011.2 hPa | 0 mm | - | - | - |
| 1777954517 | 18.89° C | 73% | 1011.4 hPa | 0 mm | - | - | - |
| 1777953614 | 19.44° C | 72% | 1011.5 hPa | 0 mm | - | - | - |
| 1777952713 | 19.44° C | 71% | 1011.4 hPa | 0 mm | - | - | - |
* Rain latest hour (hover to see other rain measurements)
** Current wind speed in m/s (hover to see current wind gust speed)